Weather History for Monett, MO

Change the Weather History Date:

Saturday, December 1, 2012

  Actual Average (KJLN) Record (KJLN)
Temperature  
Mean Temperature 60 °F 41 °F  
Max Temperature 69 °F 51 °F 75 °F (1982)
Min Temperature 50 °F 31 °F 11 °F (1985)
Degree Days  
Heating Degree Days 6 24  
Month to date heating degree days 24  
Since 1 July heating degree days 781  
Cooling Degree Days 0 0  
Month to date cooling degree days 0  
Year to date cooling degree days 1698  
Growing Degree Days 10 (Base 50)    
Moisture  
Dew Point 55 °F    
Average Humidity 81    
Maximum Humidity 100    
Minimum Humidity 60    
Precipitation  
Precipitation 0.00 in 0.11 in 0.52 in (1993)
Month to date precipitation 0.11  
Year to date precipitation 43.84  
Sea Level Pressure  
Sea Level Pressure 29.95 in    
Wind  
Wind Speed 12 mph (South)    
Max Wind Speed 31 mph    
Max Gust Speed 40 mph    
Visibility 9 miles    
Events      
T = Trace of Precipitation, MM = Missing Value Source: NWS Daily Summary

Daily Weather History Graph

Daily Weather History Graph

Search for Another Location

Airport:

Trip Planner

Search our weather history database for the weather conditions in past years. The results will help you decide how hot, cold, wet, or windy it might be!

Date:

Astronomy

Dec. 01, 2012 Rise Set
Actual Time 7:10 AM CST 4:59 PM CST
Civil Twilight 6:42 AM CST 5:28 PM CST
Nautical Twilight 6:10 AM CST 6:00 PM CST
Astronomical Twilight 5:38 AM CST 6:31 PM CST
Moon 7:49 PM CST (12/1) 9:25 AM CST (12/1)
Length of Visible Light 10h 45m
Length of Day
9h 48m
Waning Gibbous, 91% of the Moon is Illuminated
Dec 1
Waning Gibbous
Dec 6
Last Quarter
Dec 13
New
Dec 19
First Quarter
Dec 28
Full

Hourly Weather History & Observations

Time (CST) Temp. Dew Point Humidity Pressure Visibility Wind Dir Wind Speed Gust Speed Precip Events Conditions
12:15 AM 50.0 °F 50.0 °F 100% 30.06 in 7.0 mi SSE 4.6 mph - N/A   Scattered Clouds
12:35 AM 50.0 °F 50.0 °F 100% 30.06 in 5.0 mi SE 5.8 mph - N/A   Mostly Cloudy
12:55 AM 50.0 °F 50.0 °F 100% 30.05 in 5.0 mi SE 6.9 mph - N/A   Mostly Cloudy
1:15 AM 50.0 °F 50.0 °F 100% 30.05 in 5.0 mi SE 8.1 mph - N/A   Scattered Clouds
1:35 AM 50.0 °F 50.0 °F 100% 30.04 in 5.0 mi SE 6.9 mph - N/A   Clear
1:55 AM 50.0 °F 50.0 °F 100% 30.04 in 5.0 mi SE 8.1 mph - N/A   Clear
2:15 AM 51.8 °F 50.0 °F 94% 30.04 in 5.0 mi SE 8.1 mph - N/A   Clear
2:35 AM 51.8 °F 51.8 °F 100% 30.03 in 5.0 mi SE 8.1 mph - N/A   Clear
2:55 AM 51.8 °F 50.0 °F 94% 30.03 in 5.0 mi SE 6.9 mph - N/A   Clear
3:15 AM 51.8 °F 51.8 °F 100% 30.02 in 7.0 mi SE 8.1 mph - N/A   Clear
3:35 AM 51.8 °F 51.8 °F 100% 30.02 in 7.0 mi SSE 6.9 mph - N/A   Clear
4:15 AM 53.6 °F 51.8 °F 94% 30.01 in 10.0 mi SSE 9.2 mph - N/A   Clear
4:35 AM 55.4 °F 51.8 °F 88% 30.00 in 10.0 mi SSE 10.4 mph 16.1 mph N/A   Clear
4:55 AM 53.6 °F 51.8 °F 94% 30.00 in 7.0 mi SSE 8.1 mph - N/A   Clear
5:15 AM 53.6 °F 51.8 °F 94% 30.00 in 7.0 mi SSE 9.2 mph - N/A   Clear
5:35 AM 53.6 °F 51.8 °F 94% 30.00 in 7.0 mi SSE 9.2 mph - N/A   Scattered Clouds
5:55 AM 53.6 °F 51.8 °F 94% 30.00 in 7.0 mi SE 10.4 mph - N/A   Mostly Cloudy
6:15 AM 53.6 °F 51.8 °F 94% 30.00 in 7.0 mi SE 10.4 mph - N/A   Overcast
6:35 AM 53.6 °F 51.8 °F 94% 29.99 in 7.0 mi SE 10.4 mph - N/A   Overcast
6:55 AM 55.4 °F 53.6 °F 94% 29.99 in 10.0 mi SSE 10.4 mph - N/A   Overcast
7:15 AM 59.0 °F 55.4 °F 88% 29.99 in 10.0 mi South 15.0 mph 19.6 mph N/A   Overcast
7:35 AM 59.0 °F 55.4 °F 88% 29.99 in 10.0 mi South 17.3 mph 23.0 mph N/A   Overcast
8:15 AM 60.8 °F 55.4 °F 82% 29.98 in 10.0 mi South 19.6 mph 24.2 mph N/A   Overcast
8:35 AM 60.8 °F 55.4 °F 82% 29.98 in 10.0 mi South 16.1 mph - N/A   Overcast
8:55 AM 60.8 °F 55.4 °F 82% 29.98 in 10.0 mi South 16.1 mph 23.0 mph N/A   Overcast
9:15 AM 60.8 °F 55.4 °F 82% 29.98 in 10.0 mi South 16.1 mph 23.0 mph N/A   Overcast
9:35 AM 60.8 °F 55.4 °F 82% 29.98 in 10.0 mi South 18.4 mph 21.9 mph N/A   Overcast
9:55 AM 62.6 °F 57.2 °F 82% 29.97 in 10.0 mi South 16.1 mph 28.8 mph N/A   Overcast
10:15 AM 62.6 °F 57.2 °F 82% 29.97 in 10.0 mi South 19.6 mph 27.6 mph N/A   Mostly Cloudy
10:35 AM 64.4 °F 57.2 °F 77% 29.97 in 10.0 mi South 17.3 mph 24.2 mph N/A   Overcast
10:55 AM 66.2 °F 57.2 °F 73% 29.95 in 10.0 mi South 24.2 mph 28.8 mph N/A   Overcast
11:15 AM 64.4 °F 57.2 °F 77% 29.94 in 10.0 mi South 19.6 mph 31.1 mph N/A   Overcast
11:35 AM 68.0 °F 57.2 °F 68% 29.93 in 10.0 mi South 20.7 mph 32.2 mph N/A   Overcast
11:55 AM 68.0 °F 55.4 °F 64% 29.92 in 10.0 mi South 23.0 mph 34.5 mph N/A   Mostly Cloudy
12:15 PM 68.0 °F 55.4 °F 64% 29.90 in 10.0 mi South 24.2 mph 32.2 mph N/A   Mostly Cloudy
12:35 PM 68.0 °F 55.4 °F 64% 29.89 in 10.0 mi South 29.9 mph 40.3 mph N/A   Mostly Cloudy
12:55 PM 68.0 °F 55.4 °F 64% 29.89 in 10.0 mi South 26.5 mph 34.5 mph N/A   Overcast
1:15 PM 68.0 °F 55.4 °F 64% 29.88 in 10.0 mi South 25.3 mph 35.7 mph N/A   Mostly Cloudy
1:35 PM 68.0 °F 55.4 °F 64% 29.87 in 10.0 mi South 25.3 mph 38.0 mph N/A   Mostly Cloudy
1:55 PM 68.0 °F 55.4 °F 64% 29.87 in 10.0 mi South 31.1 mph 39.1 mph N/A   Overcast
2:15 PM 69.8 °F 55.4 °F 60% 29.86 in 10.0 mi South 24.2 mph 34.5 mph N/A   Mostly Cloudy
2:35 PM 68.0 °F 55.4 °F 64% 29.86 in 10.0 mi South 28.8 mph 35.7 mph N/A   Mostly Cloudy
2:55 PM 69.8 °F 55.4 °F 60% 29.86 in 10.0 mi South 23.0 mph 29.9 mph N/A   Mostly Cloudy
3:15 PM 68.0 °F 55.4 °F 64% 29.85 in 10.0 mi South 24.2 mph 29.9 mph N/A   Mostly Cloudy
3:35 PM 68.0 °F 55.4 °F 64% 29.86 in 10.0 mi South 21.9 mph 32.2 mph N/A   Mostly Cloudy
3:55 PM 68.0 °F 55.4 °F 64% 29.86 in 10.0 mi South 23.0 mph 31.1 mph N/A   Scattered Clouds
4:15 PM 68.0 °F 55.4 °F 64% 29.85 in 10.0 mi South 21.9 mph 29.9 mph N/A   Scattered Clouds
4:35 PM 68.0 °F 55.4 °F 64% 29.86 in 10.0 mi South 20.7 mph 27.6 mph N/A   Scattered Clouds
4:55 PM 68.0 °F 55.4 °F 64% 29.86 in 10.0 mi South 20.7 mph 27.6 mph N/A   Clear
5:15 PM 66.2 °F 55.4 °F 68% 29.87 in 10.0 mi South 13.8 mph - N/A   Scattered Clouds
5:55 PM 66.2 °F 55.4 °F 68% 29.89 in 10.0 mi South 12.7 mph 23.0 mph N/A   Mostly Cloudy
6:15 PM 66.2 °F 55.4 °F 68% 29.90 in 10.0 mi South 13.8 mph - N/A   Overcast
6:35 PM 64.4 °F 55.4 °F 73% 29.91 in 10.0 mi SSW 11.5 mph 18.4 mph N/A   Overcast
6:55 PM 64.4 °F 55.4 °F 73% 29.92 in 10.0 mi South 8.1 mph - N/A   Overcast
7:15 PM 64.4 °F 55.4 °F 73% 29.92 in 10.0 mi SSW 9.2 mph - N/A   Overcast
7:35 PM 64.4 °F 57.2 °F 77% 29.93 in 10.0 mi SSW 15.0 mph 25.3 mph N/A   Mostly Cloudy
7:55 PM 64.4 °F 55.4 °F 73% 29.93 in 10.0 mi South 13.8 mph 20.7 mph N/A   Mostly Cloudy
8:15 PM 64.4 °F 57.2 °F 77% 29.93 in 10.0 mi South 16.1 mph 19.6 mph N/A   Mostly Cloudy
8:35 PM 64.4 °F 57.2 °F 77% 29.93 in 10.0 mi SSW 12.7 mph 19.6 mph N/A   Overcast
8:55 PM 64.4 °F 57.2 °F 77% 29.93 in 10.0 mi South 12.7 mph - N/A   Overcast
9:15 PM 62.6 °F 57.2 °F 82% 29.93 in 10.0 mi South 12.7 mph - N/A   Mostly Cloudy
9:35 PM 62.6 °F 57.2 °F 82% 29.94 in 10.0 mi SSW 12.7 mph 18.4 mph N/A   Mostly Cloudy
9:55 PM 62.6 °F 57.2 °F 82% 29.94 in 10.0 mi SSW 11.5 mph 19.6 mph N/A   Mostly Cloudy
10:15 PM 62.6 °F 59.0 °F 88% 29.94 in 10.0 mi SSW 13.8 mph - N/A   Scattered Clouds
10:35 PM 64.4 °F 59.0 °F 83% 29.94 in 10.0 mi SSW 12.7 mph - N/A   Scattered Clouds
10:55 PM 64.4 °F 59.0 °F 83% 29.94 in 10.0 mi South 13.8 mph 20.7 mph N/A   Scattered Clouds
11:15 PM 62.6 °F 59.0 °F 88% 29.94 in 10.0 mi South 12.7 mph 18.4 mph N/A   Clear
11:35 PM 62.6 °F 59.0 °F 88% 29.94 in 10.0 mi South 13.8 mph - N/A   Clear
11:55 PM 62.6 °F 59.0 °F 88% 29.94 in 10.0 mi South 12.7 mph - N/A   Clear